| time (UTC) | temp C | wind direction | speed KPH | gust KPH | rain 1hr cm | rain 24hr cm | rain mn cm | humidity % | barometer mb |
| 20260507023235 | 18 | 306 | 11.3 | 24.1 | 0.00 | 0.00 | 0.00 | 70 | 1016.1 |
| 20260507022958 | 18 | 295 | 11.3 | 24.1 | 0.00 | 0.00 | 0.00 | 69 | 1016.2 |
| 20260507022231 | 19 | 302 | 11.3 | 17.7 | 0.00 | 0.00 | 0.00 | 68 | 1016.2 |
| 20260507021733 | 19 | 326 | 9.7 | 17.7 | 0.00 | 0.00 | 0.00 | 68 | 1016.2 |
| 20260507021455 | 20 | 269 | 6.4 | 17.7 | 0.00 | 0.00 | 0.00 | 67 | 1016.1 |
| 20260507020951 | 20 | 283 | 9.7 | 17.7 | 0.00 | 0.00 | 0.00 | 67 | 1016.1 |
| 20260507020230 | 20 | 296 | 8.0 | 17.7 | 0.00 | 0.00 | 0.00 | 67 | 1016.1 |
| 20260507015731 | 20 | 306 | 8.0 | 20.9 | 0.00 | 0.00 | 0.00 | 66 | 1016.1 |
| 20260507015231 | 20 | 289 | 12.9 | 20.9 | 0.00 | 0.00 | 0.00 | 65 | 1016.1 |
| 20260507014731 | 20 | 316 | 9.7 | 19.3 | 0.00 | 0.00 | 0.00 | 65 | 1016.1 |
| 20260507014452 | 20 | 337 | 9.7 | 19.3 | 0.00 | 0.00 | 0.00 | 65 | 1016.1 |
| 20260507013953 | 20 | 293 | 9.7 | 17.7 | 0.00 | 0.00 | 0.00 | 64 | 1016.1 |
| 20260507013241 | 21 | 312 | 11.3 | 24.1 | 0.00 | 0.00 | 0.00 | 64 | 1016.2 |
| 20260507012730 | 21 | 321 | 12.9 | 24.1 | 0.00 | 0.00 | 0.00 | 63 | 1016.1 |
| 20260507012230 | 21 | 309 | 8.0 | 20.9 | 0.00 | 0.00 | 0.00 | 63 | 1016.1 |
| 20260507011730 | 21 | 312 | 11.3 | 22.5 | 0.00 | 0.00 | 0.00 | 62 | 1016.1 |
| 20260507011229 | 21 | 271 | 9.7 | 22.5 | 0.00 | 0.00 | 0.00 | 62 | 1015.9 |
| 20260507010729 | 21 | 299 | 11.3 | 22.5 | 0.00 | 0.00 | 0.00 | 61 | 1015.9 |
| 20260507010229 | 21 | 307 | 9.7 | 22.5 | 0.00 | 0.00 | 0.00 | 61 | 1015.9 |
| 20260507005730 | 22 | 303 | 11.3 | 20.9 | 0.00 | 0.00 | 0.00 | 61 | 1015.9 |
| 20260507005715 | 22 | 283 | 9.7 | 20.9 | 0.00 | 0.00 | 0.00 | 59 | 1015.9 |
| 20260507005212 | 22 | 320 | 14.5 | 20.9 | 0.00 | 0.00 | 0.00 | 59 | 1015.9 |
| 20260507004452 | 22 | 331 | 12.9 | 20.9 | 0.00 | 0.00 | 0.00 | 58 | 1015.8 |
| 20260507003732 | 22 | 272 | 11.3 | 19.3 | 0.00 | 0.00 | 0.00 | 57 | 1015.9 |
| 20260507003455 | 22 | 303 | 9.7 | 25.7 | 0.00 | 0.00 | 0.00 | 58 | 1015.8 |
| 20260507002731 | 22 | 306 | 12.9 | 25.7 | 0.00 | 0.00 | 0.00 | 58 | 1015.8 |
| 20260507002230 | 22 | 313 | 12.9 | 24.1 | 0.00 | 0.00 | 0.00 | 58 | 1015.8 |
| 20260507001730 | 22 | 300 | 11.3 | 24.1 | 0.00 | 0.00 | 0.00 | 59 | 1015.8 |
| 20260507001230 | 22 | 306 | 17.7 | 25.7 | 0.00 | 0.00 | 0.00 | 58 | 1015.9 |
| 20260507000730 | 22 | 296 | 16.1 | 25.7 | 0.00 | 0.00 | 0.00 | 57 | 1015.8 |
| 20260507000230 | 22 | 316 | 11.3 | 25.7 | 0.00 | 0.00 | 0.00 | 58 | 1015.8 |
| 20260506235956 | 22 | 282 | 16.1 | 25.7 | 0.00 | 0.00 | 0.00 | 57 | 1015.8 |
| 20260506235452 | 22 | 254 | 12.9 | 24.1 | 0.00 | 0.00 | 0.00 | 58 | 1015.8 |
| 20260506234729 | 22 | 309 | 11.3 | 24.1 | 0.00 | 0.00 | 0.00 | 59 | 1015.8 |
| 20260506234229 | 22 | 357 | 16.1 | 24.1 | 0.00 | 0.00 | 0.00 | 59 | 1015.8 |
| 20260506234210 | 22 | 269 | 16.1 | 29.0 | 0.00 | 0.00 | 0.00 | 60 | 1015.8 |
| 20260506233227 | 22 | 281 | 19.3 | 29.0 | 0.00 | 0.00 | 0.00 | 59 | 1015.9 |
| 20260506232728 | 22 | 285 | 17.7 | 25.7 | 0.00 | 0.00 | 0.00 | 59 | 1015.9 |
| 20260506232228 | 22 | 312 | 14.5 | 25.7 | 0.00 | 0.00 | 0.00 | 59 | 1015.9 |
| 20260506231726 | 22 | 0 | 16.1 | 25.7 | 0.00 | 0.00 | 0.00 | 59 | 1016.0 |
| 20260506231228 | 22 | 299 | 9.7 | 25.7 | 0.00 | 0.00 | 0.00 | 60 | 1015.9 |
| 20260506230953 | 22 | 276 | 17.7 | 30.6 | 0.00 | 0.00 | 0.00 | 61 | 1016.0 |
| 20260506230226 | 22 | 300 | 14.5 | 30.6 | 0.00 | 0.00 | 0.00 | 60 | 1016.1 |
| 20260506225727 | 22 | 243 | 16.1 | 25.7 | 0.00 | 0.00 | 0.00 | 59 | 1016.1 |
| 20260506225226 | 22 | 341 | 11.3 | 24.1 | 0.00 | 0.00 | 0.00 | 59 | 1016.2 |
| 20260506224728 | 22 | 329 | 17.7 | 25.7 | 0.00 | 0.00 | 0.00 | 58 | 1016.2 |
| 20260506224226 | 22 | 314 | 14.5 | 25.7 | 0.00 | 0.00 | 0.00 | 58 | 1016.2 |
| 20260506223727 | 22 | 299 | 14.5 | 22.5 | 0.00 | 0.00 | 0.00 | 59 | 1016.2 |
| 20260506223227 | 22 | 268 | 12.9 | 20.9 | 0.00 | 0.00 | 0.00 | 58 | 1016.3 |
| 20260506222726 | 22 | 258 | 14.5 | 20.9 | 0.00 | 0.00 | 0.00 | 58 | 1016.3 |
| 20260506222447 | 22 | 289 | 9.7 | 20.9 | 0.00 | 0.00 | 0.00 | 59 | 1016.3 |
| 20260506221727 | 22 | 347 | 11.3 | 20.9 | 0.00 | 0.00 | 0.00 | 58 | 1016.5 |
| 20260506221227 | 22 | 336 | 14.5 | 19.3 | 0.00 | 0.00 | 0.00 | 58 | 1016.4 |
| 20260506220951 | 22 | 341 | 11.3 | 20.9 | 0.00 | 0.00 | 0.00 | 57 | 1016.5 |
| 20260506220227 | 22 | 286 | 12.9 | 20.9 | 0.00 | 0.00 | 0.00 | 57 | 1016.6 |
| 20260506215728 | 22 | 319 | 11.3 | 22.5 | 0.00 | 0.00 | 0.00 | 58 | 1016.6 |
| 20260506215228 | 22 | 334 | 12.9 | 22.5 | 0.00 | 0.00 | 0.00 | 58 | 1016.7 |
| 20260506214725 | 21 | 275 | 12.9 | 22.5 | 0.00 | 0.00 | 0.00 | 60 | 1016.7 |
| 20260506214452 | 22 | 278 | 6.4 | 22.5 | 0.00 | 0.00 | 0.00 | 59 | 1016.9 |
| 20260506213725 | 22 | 309 | 9.7 | 19.3 | 0.00 | 0.00 | 0.00 | 59 | 1016.8 |
| 20260506213225 | 22 | 317 | 9.7 | 17.7 | 0.00 | 0.00 | 0.00 | 58 | 1016.9 |
| 20260506212726 | 22 | 289 | 11.3 | 19.3 | 0.00 | 0.00 | 0.00 | 58 | 1016.9 |
| 20260506212226 | 21 | 334 | 11.3 | 19.3 | 0.00 | 0.00 | 0.00 | 61 | 1017.0 |
| 20260506211724 | 21 | 293 | 8.0 | 17.7 | 0.00 | 0.00 | 0.00 | 59 | 1017.0 |
| 20260506211225 | 21 | 275 | 8.0 | 22.5 | 0.00 | 0.00 | 0.00 | 60 | 1017.1 |
| 20260506210723 | 21 | 298 | 16.1 | 22.5 | 0.00 | 0.00 | 0.00 | 59 | 1017.1 |
| 20260506210224 | 21 | 300 | 11.3 | 22.5 | 0.00 | 0.00 | 0.00 | 60 | 1017.0 |
| 20260506205724 | 21 | 288 | 9.7 | 22.5 | 0.00 | 0.00 | 0.00 | 61 | 1017.1 |
| 20260506205225 | 21 | 303 | 9.7 | 20.9 | 0.00 | 0.00 | 0.00 | 61 | 1017.0 |
| 20260506204723 | 21 | 261 | 12.9 | 20.9 | 0.00 | 0.00 | 0.00 | 60 | 1017.2 |
| 20260506204223 | 21 | 272 | 12.9 | 19.3 | 0.00 | 0.00 | 0.00 | 60 | 1017.2 |
| 20260506203949 | 21 | 281 | 9.7 | 22.5 | 0.00 | 0.00 | 0.00 | 61 | 1017.3 |
| 20260506203224 | 21 | 271 | 16.1 | 22.5 | 0.00 | 0.00 | 0.00 | 59 | 1017.4 |
| 20260506202723 | 21 | 334 | 11.3 | 17.7 | 0.00 | 0.00 | 0.00 | 61 | 1017.5 |
| 20260506202223 | 21 | 345 | 9.7 | 16.1 | 0.00 | 0.00 | 0.00 | 61 | 1017.6 |
| 20260506201723 | 21 | 319 | 8.0 | 17.7 | 0.00 | 0.00 | 0.00 | 61 | 1017.5 |
| 20260506201222 | 21 | 300 | 11.3 | 22.5 | 0.00 | 0.00 | 0.00 | 61 | 1017.5 |
| 20260506200723 | 20 | 309 | 6.4 | 22.5 | 0.00 | 0.00 | 0.00 | 62 | 1017.6 |
| 20260506200446 | 20 | 281 | 9.7 | 17.7 | 0.00 | 0.00 | 0.00 | 62 | 1017.6 |
| 20260506195947 | 20 | 257 | 11.3 | 16.1 | 0.00 | 0.00 | 0.00 | 64 | 1017.6 |
| 20260506195448 | 20 | 290 | 9.7 | 22.5 | 0.00 | 0.00 | 0.00 | 64 | 1017.7 |
| 20260506194723 | 20 | 245 | 8.0 | 22.5 | 0.00 | 0.00 | 0.00 | 62 | 1017.7 |
| 20260506194223 | 20 | 274 | 8.0 | 20.9 | 0.00 | 0.00 | 0.00 | 65 | 1017.7 |
| 20260506193722 | 19 | 276 | 6.4 | 20.9 | 0.00 | 0.00 | 0.00 | 66 | 1017.7 |
| 20260506193222 | 19 | 271 | 12.9 | 20.9 | 0.00 | 0.00 | 0.00 | 64 | 1017.8 |
| 20260506192722 | 19 | 290 | 6.4 | 17.7 | 0.00 | 0.00 | 0.00 | 66 | 1017.8 |
| 20260506192223 | 18 | 279 | 11.3 | 19.3 | 0.00 | 0.00 | 0.00 | 67 | 1018.0 |
| 20260506191724 | 18 | 285 | 12.9 | 19.3 | 0.00 | 0.00 | 0.00 | 67 | 1018.0 |
| 20260506191224 | 18 | 286 | 4.8 | 16.1 | 0.00 | 0.00 | 0.00 | 68 | 1018.0 |
| 20260506190723 | 18 | 259 | 6.4 | 11.3 | 0.00 | 0.00 | 0.00 | 67 | 1018.1 |
| 20260506190223 | 18 | 286 | 6.4 | 16.1 | 0.00 | 0.00 | 0.00 | 67 | 1018.1 |
| 20260506185941 | 18 | 316 | 8.0 | 17.7 | 0.00 | 0.00 | 0.00 | 68 | 1018.1 |
| 20260506185442 | 18 | 289 | 9.7 | 19.3 | 0.00 | 0.00 | 0.00 | 67 | 1018.1 |
| 20260506184720 | 18 | 285 | 9.7 | 19.3 | 0.00 | 0.00 | 0.00 | 67 | 1018.1 |
| 20260506184220 | 18 | 333 | 6.4 | 22.5 | 0.00 | 0.00 | 0.00 | 67 | 1018.2 |
| 20260506183721 | 18 | 271 | 8.0 | 22.5 | 0.00 | 0.00 | 0.00 | 67 | 1018.3 |
| 20260506183221 | 18 | 295 | 6.4 | 19.3 | 0.00 | 0.00 | 0.00 | 68 | 1018.2 |
| 20260506182720 | 18 | 281 | 11.3 | 20.9 | 0.00 | 0.00 | 0.00 | 69 | 1018.3 |
| 20260506182220 | 17 | 257 | 9.7 | 20.9 | 0.00 | 0.00 | 0.00 | 70 | 1018.3 |
| 20260506181943 | 17 | 295 | 8.0 | 16.1 | 0.00 | 0.00 | 0.00 | 70 | 1018.3 |
| 20260506181221 | 17 | 262 | 8.0 | 17.7 | 0.00 | 0.00 | 0.00 | 69 | 1018.3 |
| 20260506180941 | 17 | 285 | 12.9 | 19.3 | 0.00 | 0.00 | 0.00 | 71 | 1018.3 |
| 20260506180220 | 16 | 296 | 9.7 | 19.3 | 0.00 | 0.00 | 0.00 | 72 | 1018.3 |
| 20260506175720 | 16 | 278 | 11.3 | 19.3 | 0.00 | 0.00 | 0.00 | 70 | 1018.3 |
| 20260506175220 | 17 | 275 | 8.0 | 14.5 | 0.00 | 0.00 | 0.00 | 71 | 1018.3 |
| 20260506174942 | 16 | 292 | 6.4 | 17.7 | 0.00 | 0.00 | 0.00 | 72 | 1018.3 |
| 20260506174221 | 16 | 292 | 12.9 | 17.7 | 0.00 | 0.00 | 0.00 | 71 | 1018.4 |
| 20260506173719 | 17 | 292 | 9.7 | 20.9 | 0.00 | 0.00 | 0.00 | 71 | 1018.3 |
| 20260506173218 | 17 | 305 | 11.3 | 20.9 | 0.00 | 0.00 | 0.00 | 71 | 1018.4 |
| 20260506172718 | 16 | 275 | 6.4 | 20.9 | 0.00 | 0.00 | 0.00 | 72 | 1018.4 |
| 20260506172219 | 16 | 293 | 11.3 | 20.9 | 0.00 | 0.00 | 0.00 | 73 | 1018.4 |
| 20260506171719 | 16 | 279 | 11.3 | 19.3 | 0.00 | 0.00 | 0.00 | 73 | 1018.3 |
| 20260506171220 | 16 | 258 | 9.7 | 16.1 | 0.00 | 0.00 | 0.00 | 73 | 1018.3 |
| 20260506170720 | 16 | 289 | 4.8 | 16.1 | 0.00 | 0.00 | 0.00 | 73 | 1018.4 |
| 20260506170221 | 16 | 309 | 3.2 | 11.3 | 0.00 | 0.00 | 0.00 | 74 | 1018.4 |
| 20260506165720 | 16 | 343 | 6.4 | 11.3 | 0.00 | 0.00 | 0.00 | 74 | 1018.3 |
| 20260506165219 | 16 | 289 | 3.2 | 16.1 | 0.00 | 0.00 | 0.00 | 74 | 1018.3 |
| 20260506164719 | 16 | 299 | 9.7 | 16.1 | 0.00 | 0.00 | 0.00 | 74 | 1018.3 |
| 20260506164221 | 16 | 296 | 4.8 | 16.1 | 0.00 | 0.00 | 0.00 | 74 | 1018.4 |
| 20260506163719 | 16 | 289 | 8.0 | 16.1 | 0.00 | 0.00 | 0.00 | 74 | 1018.4 |
| 20260506163218 | 16 | 275 | 6.4 | 11.3 | 0.00 | 0.00 | 0.00 | 75 | 1018.4 |
| 20260506162939 | 16 | 261 | 6.4 | 9.7 | 0.00 | 0.00 | 0.00 | 74 | 1018.3 |
| 20260506162218 | 15 | 338 | 3.2 | 9.7 | 0.00 | 0.00 | 0.00 | 75 | 1018.3 |
| 20260506161936 | 15 | 321 | 6.4 | 9.7 | 0.00 | 0.00 | 0.00 | 76 | 1018.4 |
| 20260506161218 | 15 | 257 | 4.8 | 8.0 | 0.00 | 0.00 | 0.00 | 75 | 1018.4 |
| 20260506160717 | 15 | 295 | 3.2 | 8.0 | 0.00 | 0.00 | 0.00 | 76 | 1018.3 |
| 20260506160217 | 15 | 306 | 4.8 | 8.0 | 0.00 | 0.00 | 0.00 | 76 | 1018.3 |
| 20260506155717 | 15 | 324 | 3.2 | 8.0 | 0.00 | 0.00 | 0.00 | 78 | 1018.4 |
| 20260506155216 | 15 | 314 | 6.4 | 8.0 | 0.00 | 0.00 | 0.00 | 78 | 1018.3 |
| 20260506154716 | 15 | 303 | 3.2 | 8.0 | 0.00 | 0.00 | 0.00 | 79 | 1018.3 |
| 20260506154216 | 14 | 283 | 4.8 | 8.0 | 0.00 | 0.00 | 0.00 | 80 | 1018.3 |
| 20260506154200 | 14 | 275 | 4.8 | 6.4 | 0.00 | 0.00 | 0.00 | 82 | 1018.4 |
| 20260506153216 | 14 | 186 | 1.6 | 3.2 | 0.00 | 0.00 | 0.00 | 82 | 1018.3 |
| 20260506153211 | 13 | 183 | 1.6 | 3.2 | 0.00 | 0.00 | 0.00 | 82 | 1018.2 |
| 20260506152217 | 13 | 182 | 1.6 | 4.8 | 0.00 | 0.00 | 0.00 | 82 | 1018.3 |
| 20260506151716 | 13 | 176 | 1.6 | 4.8 | 0.00 | 0.00 | 0.00 | 83 | 1018.3 |
| 20260506151216 | 13 | 176 | 0.0 | 3.2 | 0.00 | 0.00 | 0.00 | 84 | 1018.3 |
| 20260506150936 | 13 | 175 | 1.6 | 4.8 | 0.00 | 0.00 | 0.00 | 84 | 1018.4 |
| 20260506150439 | 13 | 155 | 3.2 | 4.8 | 0.00 | 0.00 | 0.00 | 84 | 1018.3 |
| 20260506145719 | 13 | 135 | 1.6 | 6.4 | 0.00 | 0.00 | 0.00 | 85 | 1018.3 |
| 20260506145217 | 13 | 134 | 3.2 | 6.4 | 0.00 | 0.00 | 0.00 | 85 | 1018.3 |
| 20260506144717 | 12 | 69 | 3.2 | 4.8 | 0.00 | 0.00 | 0.00 | 85 | 1018.3 |
| 20260506144217 | 12 | 58 | 3.2 | 4.8 | 0.00 | 0.00 | 0.00 | 85 | 1018.4 |
| 20260506143716 | 12 | 39 | 3.2 | 4.8 | 0.00 | 0.00 | 0.00 | 86 | 1018.3 |
| 20260506143216 | 12 | 38 | 3.2 | 4.8 | 0.00 | 0.00 | 0.00 | 86 | 1018.2 |
| 20260506142716 | 12 | 38 | 3.2 | 4.8 | 0.00 | 0.00 | 0.00 | 86 | 1018.2 |
| 20260506142217 | 12 | 38 | 0.0 | 0.0 | 0.00 | 0.00 | 0.00 | 86 | 1018.2 |
| 20260506141717 | 12 | 37 | 0.0 | 0.0 | 0.00 | 0.00 | 0.00 | 86 | 1018.3 |
| 20260506141216 | 12 | 37 | 0.0 | 0.0 | 0.00 | 0.00 | 0.00 | 86 | 1018.2 |
| 20260506140717 | 12 | 37 | 0.0 | 0.0 | 0.00 | 0.00 | 0.00 | 86 | 1018.0 |
| 20260506140214 | 12 | 37 | 0.0 | 0.0 | 0.00 | 0.00 | 0.00 | 86 | 1017.9 |
| 20260506135714 | 12 | 37 | 0.0 | 0.0 | 0.00 | 0.00 | 0.00 | 86 | 1017.9 |
| 20260506135440 | 12 | 37 | 0.0 | 0.0 | 0.00 | 0.00 | 0.00 | 86 | 1017.9 |
| 20260506134714 | 12 | 37 | 0.0 | 0.0 | 0.00 | 0.00 | 0.00 | 85 | 1017.8 |
| 20260506134214 | 12 | 37 | 0.0 | 0.0 | 0.00 | 0.00 | 0.00 | 85 | 1017.7 |
| 20260506133715 | 12 | 37 | 0.0 | 0.0 | 0.00 | 0.00 | 0.00 | 85 | 1017.6 |
| 20260506133214 | 12 | 37 | 0.0 | 0.0 | 0.00 | 0.00 | 0.00 | 85 | 1017.5 |
| 20260506132713 | 12 | 37 | 0.0 | 0.0 | 0.00 | 0.00 | 0.00 | 85 | 1017.5 |
| 20260506132214 | 12 | 37 | 0.0 | 0.0 | 0.00 | 0.00 | 0.00 | 85 | 1017.4 |
| 20260506131713 | 12 | 37 | 0.0 | 0.0 | 0.00 | 0.00 | 0.00 | 85 | 1017.4 |
| 20260506131436 | 12 | 37 | 0.0 | 0.0 | 0.00 | 0.00 | 0.00 | 85 | 1017.4 |
| 20260506130714 | 12 | 37 | 0.0 | 0.0 | 0.00 | 0.00 | 0.00 | 85 | 1017.3 |
| 20260506130214 | 12 | 39 | 0.0 | 0.0 | 0.00 | 0.00 | 0.00 | 85 | 1017.3 |
| 20260506125936 | 12 | 39 | 0.0 | 0.0 | 0.00 | 0.00 | 0.00 | 86 | 1017.3 |
| 20260506125213 | 12 | 39 | 0.0 | 0.0 | 0.00 | 0.00 | 0.00 | 86 | 1017.3 |
| 20260506124712 | 12 | 39 | 0.0 | 0.0 | 0.00 | 0.00 | 0.00 | 86 | 1017.2 |
| 20260506124213 | 12 | 39 | 0.0 | 0.0 | 0.00 | 0.00 | 0.00 | 86 | 1017.2 |
| 20260506123712 | 12 | 39 | 0.0 | 0.0 | 0.00 | 0.00 | 0.00 | 86 | 1017.2 |
| 20260506123438 | 12 | 39 | 0.0 | 0.0 | 0.00 | 0.00 | 0.00 | 86 | 1017.2 |
| 20260506122713 | 12 | 39 | 0.0 | 0.0 | 0.00 | 0.00 | 0.00 | 86 | 1017.3 |
| 20260506122213 | 12 | 39 | 0.0 | 0.0 | 0.00 | 0.00 | 0.00 | 86 | 1017.2 |
| 20260506121713 | 12 | 39 | 0.0 | 0.0 | 0.00 | 0.00 | 0.00 | 86 | 1017.2 |
| 20260506121442 | 12 | 39 | 0.0 | 0.0 | 0.00 | 0.00 | 0.00 | 86 | 1017.2 |
| 20260506120712 | 12 | 39 | 0.0 | 0.0 | 0.00 | 0.00 | 0.00 | 86 | 1017.2 |
| 20260506120211 | 12 | 39 | 0.0 | 0.0 | 0.00 | 0.00 | 0.00 | 86 | 1017.1 |
| 20260506115712 | 12 | 39 | 0.0 | 0.0 | 0.00 | 0.00 | 0.00 | 87 | 1017.0 |
| 20260506115212 | 12 | 39 | 0.0 | 0.0 | 0.00 | 0.00 | 0.00 | 87 | 1017.1 |
| 20260506114711 | 12 | 39 | 0.0 | 0.0 | 0.00 | 0.00 | 0.00 | 87 | 1017.0 |
| 20260506114430 | 12 | 39 | 0.0 | 0.0 | 0.00 | 0.00 | 0.00 | 87 | 1016.9 |
| 20260506114200 | 12 | 39 | 0.0 | 0.0 | 0.00 | 0.00 | 0.00 | 87 | 1017.0 |
| 20260506113211 | 12 | 39 | 0.0 | 0.0 | 0.00 | 0.00 | 0.00 | 87 | 1017.0 |
| 20260506112711 | 12 | 39 | 0.0 | 0.0 | 0.00 | 0.00 | 0.00 | 87 | 1016.9 |
| 20260506112211 | 12 | 39 | 0.0 | 0.0 | 0.00 | 0.00 | 0.00 | 87 | 1016.9 |
| 20260506111708 | 12 | 39 | 0.0 | 3.2 | 0.00 | 0.00 | 0.00 | 87 | 1016.9 |
| 20260506111206 | 11 | 39 | 0.0 | 3.2 | 0.00 | 0.00 | 0.00 | 87 | 1016.8 |
| 20260506110702 | 11 | 39 | 0.0 | 4.8 | 0.00 | 0.00 | 0.00 | 87 | 1016.8 |
| 20260506110202 | 11 | 39 | 1.6 | 4.8 | 0.00 | 0.00 | 0.00 | 87 | 1016.9 |
| 20260506105704 | 11 | 38 | 1.6 | 4.8 | 0.00 | 0.00 | 0.00 | 87 | 1016.9 |
| 20260506105202 | 11 | 44 | 3.2 | 4.8 | 0.00 | 0.00 | 0.00 | 87 | 1016.9 |
| 20260506104703 | 11 | 44 | 3.2 | 6.4 | 0.00 | 0.00 | 0.00 | 87 | 1016.9 |
| 20260506104201 | 11 | 44 | 3.2 | 6.4 | 0.00 | 0.00 | 0.00 | 87 | 1016.8 |
| 20260506103659 | 11 | 44 | 4.8 | 4.8 | 0.00 | 0.00 | 0.00 | 87 | 1016.8 |
| 20260506103156 | 11 | 44 | 3.2 | 6.4 | 0.00 | 0.00 | 0.00 | 87 | 1016.7 |
| 20260506102653 | 11 | 44 | 4.8 | 6.4 | 0.00 | 0.00 | 0.00 | 87 | 1016.7 |
| 20260506102150 | 11 | 45 | 4.8 | 6.4 | 0.00 | 0.00 | 0.00 | 87 | 1016.8 |
| 20260506101651 | 11 | 55 | 3.2 | 6.4 | 0.00 | 0.00 | 0.00 | 87 | 1016.7 |
| 20260506101150 | 11 | 55 | 3.2 | 6.4 | 0.00 | 0.00 | 0.00 | 88 | 1016.7 |
| 20260506100913 | 11 | 58 | 3.2 | 4.8 | 0.00 | 0.00 | 0.00 | 87 | 1016.6 |
| 20260506100147 | 11 | 63 | 3.2 | 4.8 | 0.00 | 0.00 | 0.00 | 87 | 1016.7 |
| 20260506095646 | 11 | 65 | 3.2 | 4.8 | 0.00 | 0.00 | 0.00 | 87 | 1016.6 |
| 20260506095408 | 11 | 63 | 1.6 | 4.8 | 0.00 | 0.00 | 0.00 | 87 | 1016.7 |
| 20260506094645 | 11 | 65 | 3.2 | 4.8 | 0.00 | 0.00 | 0.00 | 86 | 1016.7 |
| 20260506094145 | 11 | 65 | 3.2 | 4.8 | 0.00 | 0.00 | 0.00 | 86 | 1016.6 |
| 20260506093904 | 11 | 71 | 3.2 | 4.8 | 0.00 | 0.00 | 0.00 | 86 | 1016.6 |
| 20260506093144 | 12 | 71 | 3.2 | 4.8 | 0.00 | 0.00 | 0.00 | 86 | 1016.7 |
| 20260506092640 | 12 | 71 | 3.2 | 4.8 | 0.00 | 0.00 | 0.00 | 87 | 1016.7 |
| 20260506092403 | 11 | 75 | 1.6 | 4.8 | 0.00 | 0.00 | 0.00 | 86 | 1016.7 |
| 20260506091640 | 12 | 80 | 0.0 | 6.4 | 0.00 | 0.00 | 0.00 | 86 | 1016.7 |
| 20260506091137 | 12 | 80 | 3.2 | 6.4 | 0.00 | 0.00 | 0.00 | 86 | 1016.8 |
| 20260506090638 | 12 | 338 | 1.6 | 3.2 | 0.00 | 0.00 | 0.00 | 86 | 1016.9 |
| 20260506090136 | 12 | 338 | 0.0 | 3.2 | 0.00 | 0.00 | 0.00 | 86 | 1016.8 |
| 20260506085635 | 12 | 338 | 1.6 | 6.4 | 0.00 | 0.00 | 0.00 | 86 | 1016.7 |
| 20260506085133 | 12 | 338 | 3.2 | 6.4 | 0.00 | 0.00 | 0.00 | 86 | 1016.7 |
| 20260506084632 | 12 | 338 | 4.8 | 6.4 | 0.00 | 0.00 | 0.00 | 86 | 1016.6 |
| 20260506084133 | 12 | 338 | 3.2 | 4.8 | 0.00 | 0.00 | 0.00 | 86 | 1016.6 |
| 20260506083632 | 12 | 338 | 3.2 | 4.8 | 0.00 | 0.00 | 0.00 | 86 | 1016.7 |
| 20260506083133 | 12 | 338 | 3.2 | 4.8 | 0.00 | 0.00 | 0.00 | 86 | 1016.7 |
| 20260506082634 | 12 | 338 | 3.2 | 6.4 | 0.00 | 0.00 | 0.00 | 86 | 1016.8 |
| 20260506082131 | 12 | 338 | 3.2 | 6.4 | 0.00 | 0.00 | 0.00 | 85 | 1016.8 |
| 20260506081853 | 12 | 334 | 6.4 | 6.4 | 0.00 | 0.00 | 0.00 | 85 | 1016.8 |
| 20260506081132 | 12 | 327 | 1.6 | 4.8 | 0.00 | 0.00 | 0.00 | 85 | 1016.7 |
| 20260506080631 | 12 | 327 | 3.2 | 6.4 | 0.00 | 0.00 | 0.00 | 84 | 1016.7 |
| 20260506080130 | 12 | 326 | 3.2 | 6.4 | 0.00 | 0.00 | 0.00 | 84 | 1016.8 |
| 20260506073132 | 12 | 326 | 6.4 | 8.0 | 0.00 | 0.00 | 0.00 | 84 | 1016.7 |
| 20260506072632 | 12 | 324 | 4.8 | 8.0 | 0.00 | 0.00 | 0.00 | 84 | 1016.6 |
| 20260506072133 | 12 | 330 | 3.2 | 8.0 | 0.00 | 0.00 | 0.00 | 84 | 1016.5 |
| 20260506071633 | 12 | 340 | 3.2 | 6.4 | 0.00 | 0.00 | 0.00 | 84 | 1016.5 |
| 20260506071131 | 12 | 340 | 3.2 | 4.8 | 0.00 | 0.00 | 0.00 | 83 | 1016.5 |
| 20260506070632 | 12 | 340 | 3.2 | 4.8 | 0.00 | 0.00 | 0.00 | 83 | 1016.4 |
| 20260506070131 | 12 | 344 | 0.0 | 4.8 | 0.00 | 0.00 | 0.00 | 83 | 1016.4 |
| 20260506062124 | 13 | 326 | 4.8 | 11.3 | 0.00 | 0.00 | 0.00 | 82 | 1016.1 |
| 20260506061622 | 13 | 336 | 6.4 | 14.5 | 0.00 | 0.00 | 0.00 | 81 | 1016.1 |
| 20260506061117 | 13 | 331 | 8.0 | 14.5 | 0.00 | 0.00 | 0.00 | 82 | 1016.1 |
| 20260506060615 | 13 | 317 | 6.4 | 9.7 | 0.00 | 0.00 | 0.00 | 81 | 1016.0 |
| 20260506060116 | 13 | 326 | 4.8 | 9.7 | 0.00 | 0.00 | 0.00 | 81 | 1015.8 |
| 20260506051102 | 13 | 313 | 9.7 | 16.1 | 0.00 | 0.00 | 0.00 | 81 | 1015.6 |
| 20260506050603 | 13 | 336 | 8.0 | 17.7 | 0.00 | 0.00 | 0.00 | 80 | 1015.7 |
| 20260506050103 | 13 | 340 | 12.9 | 20.9 | 0.00 | 0.00 | 0.00 | 80 | 1015.6 |
| 20260506044604 | 14 | 299 | 8.0 | 17.7 | 0.00 | 0.00 | 0.00 | 79 | 1015.5 |
| 20260506044104 | 14 | 336 | 12.9 | 19.3 | 0.00 | 0.00 | 0.00 | 79 | 1015.4 |
| 20260506043603 | 14 | 310 | 9.7 | 19.3 | 0.00 | 0.00 | 0.00 | 79 | 1015.4 |
| 20260506043105 | 14 | 319 | 8.0 | 11.3 | 0.00 | 0.00 | 0.00 | 78 | 1015.4 |
| 20260506042604 | 14 | 316 | 4.8 | 8.0 | 0.00 | 0.00 | 0.00 | 78 | 1015.2 |
| 20260506042103 | 14 | 319 | 3.2 | 6.4 | 0.00 | 0.00 | 0.00 | 78 | 1015.4 |
| 20260506041603 | 14 | 317 | 3.2 | 6.4 | 0.00 | 0.00 | 0.00 | 77 | 1015.2 |
| 20260506041104 | 14 | 316 | 3.2 | 8.0 | 0.00 | 0.00 | 0.00 | 77 | 1015.2 |
| 20260506040824 | 14 | 323 | 6.4 | 8.0 | 0.00 | 0.00 | 0.00 | 77 | 1015.1 |
| 20260506035829 | 14 | 337 | 4.8 | 8.0 | 0.00 | 0.00 | 0.00 | 77 | 1014.8 |
| 20260506035103 | 14 | 340 | 6.4 | 11.3 | 0.00 | 0.00 | 0.00 | 77 | 1014.9 |
| 20260506034823 | 14 | 327 | 6.4 | 14.5 | 0.00 | 0.00 | 0.00 | 77 | 1014.8 |
| 20260506034102 | 14 | 336 | 8.0 | 14.5 | 0.00 | 0.00 | 0.00 | 77 | 1014.8 |
| 20260506033602 | 14 | 300 | 6.4 | 14.5 | 0.00 | 0.00 | 0.00 | 77 | 1014.6 |
| 20260506033059 | 14 | 336 | 8.0 | 16.1 | 0.00 | 0.00 | 0.00 | 77 | 1014.5 |
| 20260506032600 | 14 | 327 | 8.0 | 17.7 | 0.00 | 0.00 | 0.00 | 77 | 1014.4 |
| 20260506032102 | 14 | 324 | 9.7 | 17.7 | 0.00 | 0.00 | 0.00 | 77 | 1014.3 |
| 20260506031602 | 14 | 321 | 9.7 | 16.1 | 0.00 | 0.00 | 0.00 | 77 | 1014.4 |
| 20260506031326 | 14 | 338 | 8.0 | 16.1 | 0.00 | 0.00 | 0.00 | 77 | 1014.3 |
| 20260506030602 | 14 | 321 | 9.7 | 14.5 | 0.00 | 0.00 | 0.00 | 77 | 1014.3 |
| 20260506025600 | 14 | 319 | 6.4 | 11.3 | 0.00 | 0.00 | 0.00 | 77 | 1014.1 |
| 20260506025059 | 15 | 326 | 6.4 | 11.3 | 0.00 | 0.00 | 0.00 | 76 | 1014.1 |
| 20260506024559 | 15 | 340 | 6.4 | 8.0 | 0.00 | 0.00 | 0.00 | 76 | 1014.1 |
| 20260506024059 | 15 | 309 | 4.8 | 11.3 | 0.00 | 0.00 | 0.00 | 76 | 1014.0 |
| 20260506023819 | 15 | 0 | 6.4 | 11.3 | 0.00 | 0.00 | 0.00 | 76 | 1014.0 |